Home > Time Zones > World Clock > Weather > Yemen > Aden > Past weeks

Flag for Yemen Weather past 2 weeks in Aden, Yemen

Now
93 °F

Passing clouds.


Feels Like: 98 °F
Forecast: 84 / 93 °F
Wind: 17 mph from West

Location: Aden

Current Time: Sep 18, 2014 at 5:01:48 PM

Latest Report: Sep 18, 2014 at 4:00 PM


Visibility: 5 mi

Pressure: 29.62 "Hg

Humidity: 44%

Dew point: 68 °F

Location of AdenLocation

Historic Weather in Aden — Graph

°F

Aden temperature yesterday

Maximum temperature yesterday: 99 °F (at 1:00 PM)
Minimum temperature yesterday: 86 °F (at 5:00 AM)
Average temperature yesterday: 91 °F

Past Weeks' High & Low Weather Summary

 TemperatureHumidityPressure
High99 °F (Sep 15, 12:00 PM)79% (Sep 15, 9:00 PM)29.86 "Hg (Sep 15, 9:00 PM)
Low82 °F (Sep 10, 5:00 AM)25% (Sep 15, 12:00 PM)29.53 "Hg (Sep 3, 4:00 PM)
Average90 °F49%29.68 "Hg
* Reported Sep 3 4:00 PM — Sep 18 4:00 PM, Aden, Weather by CustomWeather, © 2014

Note: Actual official high and low records may vary slightly from our data, if they occured in-between our weather recording intervals... More about our weather records

Advertising

Aden weather history for previous 24 hours

 ConditionsComfort  
Time TempWeatherWind HumidityBarometerVisibility
4:00 PM
Sep 18
93 °FPassing clouds.17 mph44%29.62 "Hg5 mi
3:00 PM95 °FPassing clouds.16 mph47%29.62 "Hg5 mi
2:00 PM97 °FPassing clouds.15 mph42%29.65 "Hg5 mi
1:00 PM95 °FHaze.10 mphN/AN/A5 mi
12:00 PM95 °FPassing clouds.6 mph41%29.68 "Hg5 mi
11:00 AM93 °FScattered clouds.9 mph49%29.71 "Hg5 mi
10:00 AM91 °FPassing clouds.8 mph56%29.71 "Hg4 mi
9:00 AM90 °FPartly sunny.6 mph63%29.71 "Hg4 mi
8:00 AM90 °FPartly sunny.7 mph63%29.71 "Hg4 mi
7:00 AM88 °FPartly sunny.6 mph66%29.71 "Hg4 mi
6:00 AM88 °FPartly sunny.N/A66%29.65 "Hg4 mi
5:00 AM90 °FPassing clouds.No wind63%29.65 "Hg4 mi
4:00 AM88 °FPassing clouds.1 mph70%29.59 "Hg4 mi
3:00 AM88 °FClear.5 mph70%29.59 "Hg4 mi
2:00 AM88 °FClear.13 mph66%29.59 "Hg4 mi
1:00 AM90 °FClear.8 mph59%29.59 "Hg4 mi
12:00 AM90 °FClear.6 mph59%29.62 "Hg4 mi
11:00 PM
Sep 17
90 °FPassing clouds.8 mph59%29.62 "Hg4 mi
10:00 PM91 °FPassing clouds.8 mph56%29.65 "Hg4 mi
9:00 PM93 °FClear.6 mph47%29.62 "Hg4 mi
8:00 PM93 °FClear.5 mph44%29.62 "Hg4 mi
7:00 PM91 °FPassing clouds.7 mph49%29.59 "Hg4 mi
6:00 PM93 °FExtremely hot.12 mph44%29.59 "Hg4 mi
5:00 PM95 °FScattered clouds.10 mph41%29.56 "Hg4 mi
Weather by CustomWeather, © 2014

See weather overviewHow to use our weather pages